{"data":{"norad_id":57442,"epoch":"2026-09-20T10:23:03.499296Z","epoch_age_seconds":133387,"freshness":"FRESH","line1":"1 57442U 23105N   26263.43267939 -.00000589  00000+0 -11899-4 0  9990","line2":"2 57442  43.0010 240.1798 0001154 269.9156  90.1563 15.27577221175424","mean_motion":15.27577221,"eccentricity":0.0001154,"inclination_deg":43.001,"raan_deg":240.1798,"arg_perigee_deg":269.9156,"mean_anomaly_deg":90.1563,"bstar":-1.1899e-5,"rev_number":17542,"period_min":94.266920205666,"perigee_km":482.26563554224,"apogee_km":483.84919921378,"semimajor_km":6861.194417378,"source":"CELESTRAK","updated_at":"2026-09-21T09:00:33.626586Z"}}